"read_dt","SO2 (ppb)","flags","PMT voltage (V)","lamp voltage (V)","lamp intensity (Hz)","internal temp (C)","react chamber temp (C)","sample flow (l/min)","pres (mmHg)","SO2 bkg (ppb)","SO2 coefficient"
2014-07-30 00:00:00,1848E-3,5C000000,-0724,0830,12088,033.6,045.7,0.468,727.4,01.19,0.508
2014-07-30 00:01:00,1831E-3,5C000000,-0724,0829,12330,033.6,045.7,0.468,727.4,01.19,0.508
2014-07-30 00:02:00,1874E-3,5C000000,-0724,0829,12077,033.6,045.7,0.468,727.4,01.19,0.508
2014-07-30 00:03:00,1962E-3,5C000000,-0724,0829,12128,033.6,045.7,0.468,727.4,01.19,0.508
2014-07-30 00:04:00,1932E-3,5C000000,-0724,0830,12052,033.6,045.7,0.468,727.4,01.19,0.508
2014-07-30 00:05:00,1912E-3,5C000000,-0724,0829,11760,033.6,045.7,0.468,727.4,01.19,0.508
2014-07-30 00:06:00,1920E-3,5C000000,-0724,0829,11998,033.6,045.7,0.468,727.4,01.19,0.508
2014-07-30 00:07:00,1953E-3,5C000000,-0724,0830,12098,033.7,045.7,0.468,727.4,01.19,0.508
2014-07-30 00:08:00,2000E-3,5C000000,-0724,0830,12167,033.7,045.7,0.468,727.4,01.19,0.508
2014-07-30 00:09:00,1970E-3,5C000000,-0724,0831,12213,033.7,045.7,0.468,727.4,01.19,0.508
2014-07-30 00:10:00,1983E-3,5C000000,-0724,0831,12169,033.7,045.7,0.468,727.4,01.19,0.508
2014-07-30 00:11:00,2034E-3,5C000000,-0724,0831,12053,033.7,045.7,0.468,727.4,01.19,0.508
2014-07-30 00:12:00,1996E-3,5C000000,-0724,0830,12176,033.7,045.7,0.468,727.4,01.19,0.508
2014-07-30 00:13:00,1957E-3,5C000000,-0724,0830,12276,033.7,045.7,0.468,727.5,01.19,0.508
2014-07-30 00:14:00,1925E-3,5C000000,-0724,0829,12295,033.7,045.7,0.468,727.4,01.19,0.508
2014-07-30 00:15:00,1952E-3,5C000000,-0724,0830,12303,033.7,045.7,0.468,727.4,01.19,0.508
2014-07-30 00:16:00,2057E-3,5C000000,-0724,0831,11942,033.7,045.7,0.468,727.5,01.19,0.508
2014-07-30 00:17:00,1972E-3,5C000000,-0724,0831,12048,033.7,045.7,0.468,727.5,01.19,0.508
2014-07-30 00:18:00,1919E-3,5C000000,-0724,0830,12296,033.7,045.7,0.468,727.5,01.19,0.508
2014-07-30 00:19:00,2000E-3,5C000000,-0724,0830,12065,033.7,045.7,0.468,727.4,01.19,0.508
2014-07-30 00:20:00,1988E-3,5C000000,-0724,0831,12375,033.7,045.7,0.468,727.4,01.19,0.508
2014-07-30 00:21:00,2033E-3,5C000000,-0724,0830,12119,033.8,045.7,0.467,727.4,01.19,0.508
2014-07-30 00:22:00,1959E-3,5C000000,-0724,0830,12253,033.8,045.7,0.467,727.4,01.19,0.508
2014-07-30 00:23:00,1913E-3,5C000000,-0724,0830,12258,033.8,045.7,0.467,727.4,01.19,0.508
2014-07-30 00:24:00,1857E-3,5C000000,-0724,0830,12214,033.8,045.7,0.467,727.4,01.19,0.508
2014-07-30 00:25:00,1980E-3,5C000000,-0724,0830,12294,033.8,045.7,0.467,727.4,01.19,0.508
2014-07-30 00:26:00,2058E-3,5C000000,-0724,0831,12125,033.8,045.7,0.467,727.4,01.19,0.508
2014-07-30 00:27:00,1898E-3,5C000000,-0724,0830,12269,033.8,045.7,0.468,727.4,01.19,0.508
2014-07-30 00:28:00,2009E-3,5C000000,-0724,0830,12214,033.8,045.7,0.468,727.4,01.19,0.508
2014-07-30 00:29:00,1969E-3,5C000000,-0724,0829,11954,033.8,045.7,0.468,727.4,01.19,0.508
2014-07-30 00:30:00,1893E-3,5C000000,-0724,0830,12109,033.8,045.7,0.468,727.4,01.19,0.508
2014-07-30 00:31:00,2027E-3,5C000000,-0724,0830,12058,033.9,045.7,0.468,727.4,01.19,0.508
2014-07-30 00:32:00,1952E-3,5C000000,-0724,0830,12088,033.9,045.7,0.468,727.4,01.19,0.508
2014-07-30 00:33:00,1880E-3,5C000000,-0724,0830,12206,033.9,045.7,0.468,727.4,01.19,0.508
2014-07-30 00:34:00,1943E-3,5C000000,-0724,0830,12211,033.9,045.7,0.468,727.4,01.19,0.508
2014-07-30 00:35:00,1825E-3,5C000000,-0724,0829,12129,033.9,045.7,0.468,727.4,01.19,0.508
2014-07-30 00:36:00,1884E-3,5C000000,-0724,0831,11985,033.9,045.7,0.468,727.4,01.19,0.508
2014-07-30 00:37:00,1951E-3,5C000000,-0724,0829,12116,033.9,045.7,0.468,727.4,01.19,0.508
2014-07-30 00:38:00,2044E-3,5C000000,-0724,0829,12203,033.9,045.7,0.468,727.4,01.19,0.508
2014-07-30 00:39:00,1885E-3,5C000000,-0724,0831,12120,033.9,045.7,0.468,727.4,01.19,0.508
2014-07-30 00:40:00,1975E-3,5C000000,-0724,0830,12197,033.9,045.7,0.468,727.4,01.19,0.508
2014-07-30 00:41:00,1944E-3,5C000000,-0724,0829,12046,033.9,045.7,0.468,727.3,01.19,0.508
2014-07-30 00:42:00,1929E-3,5C000000,-0724,0829,12183,033.9,045.7,0.468,727.4,01.19,0.508
2014-07-30 00:43:00,1958E-3,5C000000,-0724,0829,12048,034.0,045.7,0.468,727.4,01.19,0.508
2014-07-30 00:44:00,1941E-3,5C000000,-0724,0829,12352,034.0,045.7,0.468,727.4,01.19,0.508
2014-07-30 00:45:00,1923E-3,5C000000,-0724,0830,12364,034.0,045.7,0.468,727.4,01.19,0.508
2014-07-30 00:46:00,2037E-3,5C000000,-0724,0829,11906,034.0,045.7,0.468,727.4,01.19,0.508
2014-07-30 00:47:00,1839E-3,5C000000,-0724,0829,12043,034.0,045.7,0.468,727.4,01.19,0.508
2014-07-30 00:48:00,2032E-3,5C000000,-0724,0830,12118,034.0,045.7,0.468,727.3,01.19,0.508
2014-07-30 00:49:00,2006E-3,5C000000,-0724,0830,12097,034.0,045.7,0.468,727.3,01.19,0.508
2014-07-30 00:50:00,2059E-3,5C000000,-0724,0830,12041,034.0,045.7,0.468,727.3,01.19,0.508
2014-07-30 00:51:00,2010E-3,5C000000,-0724,0830,12060,034.0,045.7,0.468,727.3,01.19,0.508
2014-07-30 00:52:00,1948E-3,5C000000,-0724,0830,12198,034.0,045.7,0.468,727.3,01.19,0.508
2014-07-30 00:53:00,1888E-3,5C000000,-0724,0830,12176,034.0,045.7,0.468,727.3,01.19,0.508
2014-07-30 00:54:00,1968E-3,5C000000,-0724,0831,12279,034.0,045.7,0.467,727.3,01.19,0.508
2014-07-30 00:55:00,2073E-3,5C000000,-0724,0831,12375,034.1,045.7,0.467,727.3,01.19,0.508
2014-07-30 00:56:00,1791E-3,5C000000,-0724,0830,12254,034.1,045.7,0.467,727.3,01.19,0.508
2014-07-30 00:57:00,1887E-3,5C000000,-0724,0830,12181,034.1,045.7,0.467,727.3,01.19,0.508
2014-07-30 00:58:00,2003E-3,5C000000,-0724,0830,12204,034.1,045.7,0.467,727.3,01.19,0.508
2014-07-30 00:59:00,1947E-3,5C000000,-0724,0831,12169,034.1,045.7,0.467,727.3,01.19,0.508
2014-07-30 01:00:00,1949E-3,5C000000,-0724,0830,12250,034.1,045.7,0.467,727.3,01.19,0.508
2014-07-30 01:01:00,2003E-3,5C000000,-0724,0829,12056,034.1,045.7,0.467,727.3,01.19,0.508
2014-07-30 01:02:00,1944E-3,5C000000,-0724,0830,12237,034.1,045.7,0.467,727.3,01.19,0.508
2014-07-30 01:03:00,1922E-3,5C000000,-0724,0830,12221,034.1,045.7,0.467,727.3,01.19,0.508
2014-07-30 01:04:00,1912E-3,5C000000,-0724,0830,12295,034.2,045.7,0.467,727.3,01.19,0.508
2014-07-30 01:05:00,1890E-3,5C000000,-0724,0829,12169,034.2,045.7,0.467,727.3,01.19,0.508
2014-07-30 01:06:00,2040E-3,5C000000,-0724,0830,12075,034.2,045.7,0.467,727.4,01.19,0.508
2014-07-30 01:07:00,1927E-3,5C000000,-0724,0830,12156,034.2,045.7,0.467,727.4,01.19,0.508
2014-07-30 01:08:00,1920E-3,5C000000,-0724,0830,12088,034.2,045.7,0.467,727.4,01.19,0.508
2014-07-30 01:09:00,2076E-3,5C000000,-0724,0830,12203,034.2,045.7,0.467,727.4,01.19,0.508
2014-07-30 01:10:00,1755E-3,5C000000,-0724,0829,12104,034.2,045.7,0.467,727.4,01.19,0.508
2014-07-30 01:11:00,1996E-3,5C000000,-0724,0831,12277,034.2,045.7,0.467,727.4,01.19,0.508
2014-07-30 01:12:00,1889E-3,5C000000,-0724,0830,12008,034.2,045.7,0.467,727.4,01.19,0.508
2014-07-30 01:13:00,1970E-3,5C000000,-0724,0829,12134,034.2,045.7,0.467,727.4,01.19,0.508
2014-07-30 01:14:00,1920E-3,5C000000,-0724,0831,12336,034.2,045.7,0.467,727.4,01.19,0.508
2014-07-30 01:15:00,2007E-3,5C000000,-0724,0830,12232,034.3,045.7,0.467,727.4,01.19,0.508
2014-07-30 01:16:00,1993E-3,5C000000,-0724,0832,12128,034.3,045.7,0.467,727.4,01.19,0.508
2014-07-30 01:17:00,1942E-3,5C000000,-0724,0830,12019,034.3,045.7,0.467,727.4,01.19,0.508
2014-07-30 01:18:00,2024E-3,5C000000,-0724,0831,12269,034.3,045.7,0.467,727.4,01.19,0.508
2014-07-30 01:19:00,1961E-3,5C000000,-0724,0830,12122,034.3,045.7,0.467,727.4,01.19,0.508
2014-07-30 01:20:00,1866E-3,5C000000,-0724,0830,12144,034.3,045.7,0.467,727.4,01.19,0.508
2014-07-30 01:21:00,1834E-3,5C000000,-0724,0830,12391,034.3,045.7,0.467,727.4,01.19,0.508
2014-07-30 01:22:00,1952E-3,5C000000,-0724,0830,12194,034.3,045.7,0.467,727.4,01.19,0.508
2014-07-30 01:23:00,1936E-3,5C000000,-0724,0830,12141,034.3,045.7,0.467,727.4,01.19,0.508
2014-07-30 01:24:00,1918E-3,5C000000,-0724,0830,12268,034.3,045.7,0.467,727.4,01.19,0.508
2014-07-30 01:25:00,2032E-3,5C000000,-0724,0830,12224,034.4,045.7,0.467,727.4,01.19,0.508
2014-07-30 01:26:00,2000E-3,5C000000,-0724,0830,12334,034.4,045.7,0.467,727.4,01.19,0.508
2014-07-30 01:27:00,1924E-3,5C000000,-0724,0830,12062,034.4,045.7,0.467,727.4,01.19,0.508
2014-07-30 01:28:00,1923E-3,5C000000,-0724,0830,12198,034.4,045.7,0.467,727.3,01.19,0.508
2014-07-30 01:29:00,1906E-3,5C000000,-0724,0831,12266,034.4,045.7,0.467,727.3,01.19,0.508
2014-07-30 01:30:00,1907E-3,5C000000,-0724,0830,12305,034.4,045.7,0.467,727.3,01.19,0.508
2014-07-30 01:31:00,1825E-3,5C000000,-0724,0831,12251,034.4,045.7,0.467,727.3,01.19,0.508
2014-07-30 01:32:00,1946E-3,5C000000,-0724,0831,12292,034.4,045.7,0.467,727.3,01.19,0.508
2014-07-30 01:33:00,1925E-3,5C000000,-0724,0830,12142,034.4,045.7,0.466,727.3,01.19,0.508
2014-07-30 01:34:00,1839E-3,5C000000,-0724,0830,12286,034.5,045.7,0.466,727.3,01.19,0.508
2014-07-30 01:35:00,2015E-3,5C000000,-0724,0830,12213,034.5,045.7,0.466,727.3,01.19,0.508
2014-07-30 01:36:00,1974E-3,5C000000,-0724,0830,12137,034.5,045.7,0.467,727.3,01.19,0.508
2014-07-30 01:37:00,1931E-3,5C000000,-0724,0831,12168,034.5,045.7,0.467,727.3,01.19,0.508
2014-07-30 01:38:00,1907E-3,5C000000,-0724,0830,12263,034.5,045.7,0.467,727.3,01.19,0.508
2014-07-30 01:39:00,1805E-3,5C000000,-0724,0832,12020,034.5,045.7,0.467,727.2,01.19,0.508
2014-07-30 01:40:00,1898E-3,5C000000,-0724,0830,11991,034.5,045.7,0.467,727.2,01.19,0.508
2014-07-30 01:41:00,2009E-3,5C000000,-0724,0830,12203,034.5,045.7,0.466,727.2,01.19,0.508
2014-07-30 01:42:00,1866E-3,5C000000,-0724,0830,12228,034.6,045.7,0.466,727.3,01.19,0.508
2014-07-30 01:43:00,1932E-3,5C000000,-0724,0831,12034,034.6,045.7,0.466,727.3,01.19,0.508
2014-07-30 01:44:00,2017E-3,5C000000,-0724,0830,12224,034.6,045.7,0.467,727.3,01.19,0.508
2014-07-30 01:45:00,1970E-3,5C000000,-0724,0830,11985,034.6,045.7,0.467,727.2,01.19,0.508
2014-07-30 01:46:00,1925E-3,5C000000,-0724,0830,12287,034.6,045.7,0.467,727.3,01.19,0.508
2014-07-30 01:47:00,1772E-3,5C000000,-0724,0830,12160,034.6,045.7,0.467,727.3,01.19,0.508
2014-07-30 01:48:00,1954E-3,5C000000,-0724,0831,12184,034.6,045.7,0.466,727.3,01.19,0.508
2014-07-30 01:49:00,1692E-3,5C000000,-0724,0830,12282,034.6,045.7,0.466,727.3,01.19,0.508
2014-07-30 01:50:00,1941E-3,5C000000,-0724,0830,12152,034.6,045.7,0.466,727.3,01.19,0.508
2014-07-30 01:51:00,1943E-3,5C000000,-0724,0830,12197,034.6,045.7,0.466,727.3,01.19,0.508
2014-07-30 01:52:00,1993E-3,5C000000,-0724,0829,12305,034.6,045.7,0.466,727.3,01.19,0.508
2014-07-30 01:53:00,1882E-3,5C000000,-0724,0831,12126,034.7,045.7,0.467,727.3,01.19,0.508
2014-07-30 01:54:00,1860E-3,5C000000,-0724,0831,12111,034.7,045.7,0.467,727.3,01.19,0.508
2014-07-30 01:55:00,1712E-3,5C000000,-0724,0831,12115,034.7,045.7,0.466,727.3,01.19,0.508
2014-07-30 01:56:00,1748E-3,5C000000,-0724,0831,12123,034.7,045.7,0.466,727.3,01.19,0.508
2014-07-30 01:57:00,1873E-3,5C000000,-0724,0830,12190,034.7,045.7,0.466,727.3,01.19,0.508
2014-07-30 01:58:00,1892E-3,5C000000,-0724,0831,12318,034.7,045.7,0.466,727.3,01.19,0.508
2014-07-30 01:59:00,1982E-3,5C000000,-0724,0831,12237,034.7,045.7,0.467,727.3,01.19,0.508
2014-07-30 02:00:00,1956E-3,5C000000,-0724,0831,12276,034.7,045.7,0.467,727.3,01.19,0.508
2014-07-30 02:01:00,1935E-3,5C000000,-0724,0830,12048,034.7,045.7,0.466,727.3,01.19,0.508
2014-07-30 02:02:00,2002E-3,5C000000,-0724,0831,11956,034.8,045.7,0.466,727.3,01.19,0.508
2014-07-30 02:03:00,1844E-3,5C000000,-0724,0830,12171,034.8,045.7,0.466,727.3,01.19,0.508
2014-07-30 02:04:00,1897E-3,5C000000,-0724,0830,12225,034.8,045.7,0.466,727.3,01.19,0.508
2014-07-30 02:05:00,1868E-3,5C000000,-0724,0830,12093,034.8,045.7,0.467,727.3,01.19,0.508
2014-07-30 02:06:00,2003E-3,5C000000,-0724,0831,12098,034.8,045.7,0.466,727.3,01.19,0.508
2014-07-30 02:07:00,1860E-3,5C000000,-0724,0830,12200,034.8,045.7,0.466,727.3,01.19,0.508
2014-07-30 02:08:00,1848E-3,5C000000,-0724,0830,12118,034.8,045.7,0.466,727.3,01.19,0.508
2014-07-30 02:09:00,2034E-3,5C000000,-0724,0830,12343,034.8,045.7,0.466,727.3,01.19,0.508
2014-07-30 02:10:00,1949E-3,5C000000,-0724,0830,12151,034.9,045.7,0.466,727.3,01.19,0.508
2014-07-30 02:11:00,1781E-3,5C000000,-0724,0831,12313,034.9,045.7,0.466,727.3,01.19,0.508
2014-07-30 02:12:00,1975E-3,5C000000,-0724,0831,12113,034.9,045.7,0.466,727.3,01.19,0.508
2014-07-30 02:13:00,1954E-3,5C000000,-0724,0831,12257,034.9,045.7,0.466,727.3,01.19,0.508
2014-07-30 02:14:00,1917E-3,5C000000,-0724,0830,12256,034.9,045.7,0.466,727.3,01.19,0.508
2014-07-30 02:15:00,1965E-3,5C000000,-0724,0831,12250,034.9,045.7,0.466,727.3,01.19,0.508
2014-07-30 02:16:00,1964E-3,5C000000,-0724,0830,12175,034.9,045.7,0.466,727.3,01.19,0.508
2014-07-30 02:17:00,1956E-3,5C000000,-0724,0831,12187,034.9,045.7,0.466,727.2,01.19,0.508
2014-07-30 02:18:00,1899E-3,5C000000,-0724,0831,12221,035.0,045.7,0.466,727.3,01.19,0.508
2014-07-30 02:19:00,1779E-3,5C000000,-0724,0830,12238,035.0,045.7,0.466,727.2,01.19,0.508
2014-07-30 02:20:00,1894E-3,5C000000,-0724,0830,12227,035.0,045.7,0.466,727.3,01.19,0.508
2014-07-30 02:21:00,1886E-3,5C000000,-0724,0831,12332,035.0,045.7,0.466,727.3,01.19,0.508
2014-07-30 02:22:00,1965E-3,5C000000,-0724,0831,12296,035.0,045.7,0.466,727.3,01.19,0.508
2014-07-30 02:23:00,1940E-3,5C000000,-0724,0830,12220,035.0,045.7,0.466,727.2,01.19,0.508
2014-07-30 02:24:00,1914E-3,5C000000,-0724,0831,12122,035.0,045.7,0.466,727.2,01.19,0.508
2014-07-30 02:25:00,1933E-3,5C000000,-0724,0831,12343,035.1,045.7,0.466,727.3,01.19,0.508
2014-07-30 02:26:00,2003E-3,5C000000,-0724,0830,12302,035.0,045.7,0.466,727.3,01.19,0.508
2014-07-30 02:27:00,1931E-3,5C000000,-0724,0831,12329,035.1,045.7,0.466,727.3,01.19,0.508
2014-07-30 02:28:00,1775E-3,5C000000,-0724,0831,12259,035.1,045.7,0.465,727.3,01.19,0.508
2014-07-30 02:29:00,2010E-3,5C000000,-0724,0831,12105,035.1,045.7,0.466,727.3,01.19,0.508
2014-07-30 02:30:00,1885E-3,5C000000,-0724,0831,12317,035.1,045.7,0.466,727.3,01.19,0.508
2014-07-30 02:31:00,1971E-3,5C000000,-0724,0830,12073,035.1,045.7,0.466,727.3,01.19,0.508
2014-07-30 02:32:00,1925E-3,5C000000,-0724,0830,12093,035.1,045.7,0.466,727.2,01.19,0.508
2014-07-30 02:33:00,2084E-3,5C000000,-0724,0831,12079,035.2,045.7,0.466,727.2,01.19,0.508
2014-07-30 02:34:00,2024E-3,5C000000,-0724,0830,12197,035.2,045.7,0.466,727.2,01.19,0.508
2014-07-30 02:35:00,2003E-3,5C000000,-0724,0831,12234,035.2,045.7,0.465,727.2,01.19,0.508
2014-07-30 02:36:00,1931E-3,5C000000,-0724,0830,12249,035.2,045.7,0.466,727.3,01.19,0.508
2014-07-30 02:37:00,2043E-3,5C000000,-0724,0830,12180,035.2,045.7,0.466,727.3,01.19,0.508
2014-07-30 02:38:00,1993E-3,5C000000,-0724,0831,12326,035.2,045.7,0.466,727.3,01.19,0.508
2014-07-30 02:39:00,2085E-3,5C000000,-0724,0831,12140,035.2,045.7,0.465,727.3,01.19,0.508
2014-07-30 02:40:00,1932E-3,5C000000,-0724,0831,12073,035.2,045.7,0.466,727.3,01.19,0.508
2014-07-30 02:41:00,1914E-3,5C000000,-0724,0831,12044,035.2,045.7,0.466,727.3,01.19,0.508
2014-07-30 02:42:00,1960E-3,5C000000,-0724,0831,12258,035.3,045.7,0.465,727.2,01.19,0.508
2014-07-30 02:43:00,1914E-3,5C000000,-0724,0831,12340,035.3,045.7,0.466,727.2,01.19,0.508
2014-07-30 02:44:00,1980E-3,5C000000,-0724,0831,12135,035.3,045.7,0.466,727.2,01.19,0.508
2014-07-30 02:45:00,2051E-3,5C000000,-0724,0831,12304,035.3,045.7,0.465,727.2,01.19,0.508
2014-07-30 02:46:00,2023E-3,5C000000,-0724,0830,12311,035.3,045.7,0.465,727.3,01.19,0.508
2014-07-30 02:47:00,2022E-3,5C000000,-0724,0831,12092,035.3,045.7,0.466,727.3,01.19,0.508
2014-07-30 02:48:00,2016E-3,5C000000,-0724,0831,12232,035.3,045.7,0.465,727.2,01.19,0.508
2014-07-30 02:49:00,2066E-3,5C000000,-0724,0830,12220,035.4,045.7,0.465,727.3,01.19,0.508
2014-07-30 02:50:00,2057E-3,5C000000,-0724,0833,11993,035.3,045.7,0.466,727.3,01.19,0.508
2014-07-30 02:51:00,2098E-3,5C000000,-0724,0830,12138,035.4,045.7,0.465,727.2,01.19,0.508
2014-07-30 02:52:00,1960E-3,5C000000,-0724,0830,12213,035.4,045.7,0.465,727.1,01.19,0.508
2014-07-30 02:53:00,1978E-3,5C000000,-0724,0831,12314,035.4,045.7,0.466,727.2,01.19,0.508
2014-07-30 02:54:00,2062E-3,5C000000,-0724,0831,12118,035.4,045.7,0.465,727.3,01.19,0.508
2014-07-30 02:55:00,2039E-3,5C000000,-0724,0830,12205,035.4,045.7,0.465,727.2,01.19,0.508
2014-07-30 02:56:00,1847E-3,5C000000,-0724,0831,12324,035.5,045.7,0.466,727.3,01.19,0.508
2014-07-30 02:57:00,2006E-3,5C000000,-0724,0830,11977,035.5,045.7,0.465,727.3,01.19,0.508
2014-07-30 02:58:00,1916E-3,5C000000,-0724,0831,12223,035.5,045.7,0.465,727.3,01.19,0.508
2014-07-30 02:59:00,1890E-3,5C000000,-0724,0832,12187,035.5,045.7,0.465,727.2,01.19,0.508
2014-07-30 03:00:00,1942E-3,5C000000,-0724,0831,12075,035.5,045.7,0.465,727.2,01.19,0.508
2014-07-30 03:01:00,1956E-3,5C000000,-0724,0831,12301,035.5,045.7,0.465,727.2,01.19,0.508
2014-07-30 03:02:00,2074E-3,5C000000,-0724,0830,12118,035.5,045.7,0.465,727.1,01.19,0.508
2014-07-30 03:03:00,1953E-3,5C000000,-0724,0831,12309,035.5,045.7,0.465,727.2,01.19,0.508
2014-07-30 03:04:00,1880E-3,5C000000,-0724,0831,12178,035.5,045.7,0.465,727.1,01.19,0.508
2014-07-30 03:05:00,1952E-3,5C000000,-0724,0830,12224,035.6,045.7,0.465,727.2,01.19,0.508
2014-07-30 03:06:00,1895E-3,5C000000,-0724,0831,12232,035.6,045.7,0.465,727.2,01.19,0.508
2014-07-30 03:07:00,2042E-3,5C000000,-0724,0831,12149,035.6,045.7,0.465,727.1,01.19,0.508
2014-07-30 03:08:00,2016E-3,5C000000,-0724,0831,12124,035.6,045.7,0.465,727.1,01.19,0.508
2014-07-30 03:09:00,1953E-3,5C000000,-0724,0831,12254,035.6,045.7,0.465,727.2,01.19,0.508
2014-07-30 03:10:00,1933E-3,5C000000,-0724,0831,12155,035.6,045.7,0.465,727.1,01.19,0.508
2014-07-30 03:11:00,1986E-3,5C000000,-0724,0829,12191,035.7,045.7,0.465,727.1,01.19,0.508
2014-07-30 03:12:00,1964E-3,5C000000,-0724,0831,12177,035.7,045.7,0.465,727.1,01.19,0.508
2014-07-30 03:13:00,1936E-3,5C000000,-0724,0832,12091,035.7,045.7,0.465,727.1,01.19,0.508
2014-07-30 03:14:00,2037E-3,5C000000,-0724,0831,11990,035.7,045.7,0.465,727.1,01.19,0.508
2014-07-30 03:15:00,2103E-3,5C000000,-0724,0830,12066,035.7,045.7,0.465,727.0,01.19,0.508
2014-07-30 03:16:00,1940E-3,5C000000,-0724,0832,12211,035.8,045.7,0.465,727.1,01.19,0.508
2014-07-30 03:17:00,1992E-3,5C000000,-0724,0831,12240,035.8,045.7,0.464,727.1,01.19,0.508
2014-07-30 03:18:00,1961E-3,5C000000,-0724,0831,12133,035.8,045.8,0.465,727.1,01.19,0.508
2014-07-30 03:19:00,1990E-3,5C000000,-0724,0832,12297,035.8,045.8,0.465,727.1,01.19,0.508
2014-07-30 03:20:00,2006E-3,5C000000,-0724,0831,12154,035.8,045.7,0.464,727.1,01.19,0.508
2014-07-30 03:21:00,1878E-3,5C000000,-0724,0832,12264,035.8,045.7,0.465,727.1,01.19,0.508
2014-07-30 03:22:00,1976E-3,5C000000,-0724,0831,12141,035.9,045.8,0.464,727.1,01.19,0.508
2014-07-30 03:23:00,1838E-3,5C000000,-0724,0830,12206,035.9,045.7,0.465,727.1,01.19,0.508
2014-07-30 03:24:00,2070E-3,5C000000,-0724,0831,11933,035.9,045.7,0.465,727.0,01.19,0.508
2014-07-30 03:25:00,1822E-3,5C000000,-0724,0830,11952,035.9,045.7,0.464,727.1,01.19,0.508
2014-07-30 03:26:00,2021E-3,5C000000,-0724,0830,12087,035.9,045.8,0.465,727.1,01.19,0.508
2014-07-30 03:27:00,1881E-3,5C000000,-0724,0830,12244,036.0,045.8,0.464,727.1,01.19,0.508
2014-07-30 03:28:00,1922E-3,5C000000,-0724,0831,12177,036.0,045.8,0.465,727.0,01.19,0.508
2014-07-30 03:29:00,2002E-3,5C000000,-0724,0830,11929,036.0,045.7,0.464,727.1,01.19,0.508
2014-07-30 03:30:00,2049E-3,5C000000,-0724,0830,12071,036.0,045.8,0.464,727.1,01.19,0.508
2014-07-30 03:31:00,1912E-3,5C000000,-0724,0831,12202,036.0,045.8,0.465,727.1,01.19,0.508
2014-07-30 03:32:00,1890E-3,5C000000,-0724,0830,12278,036.0,045.8,0.464,727.1,01.19,0.508
2014-07-30 03:33:00,1918E-3,5C000000,-0724,0832,12130,036.0,045.7,0.465,727.0,01.19,0.508
2014-07-30 03:34:00,1861E-3,5C000000,-0724,0832,12052,036.1,045.7,0.464,727.1,01.19,0.508
2014-07-30 03:35:00,1930E-3,5C000000,-0724,0832,12264,036.1,045.8,0.465,727.1,01.19,0.508
2014-07-30 03:36:00,1872E-3,5C000000,-0724,0830,12134,036.1,045.8,0.464,727.1,01.19,0.508
2014-07-30 03:37:00,1935E-3,5C000000,-0724,0832,12314,036.1,045.8,0.464,727.1,01.19,0.508
2014-07-30 03:38:00,1923E-3,5C000000,-0724,0831,12391,036.1,045.8,0.464,727.0,01.19,0.508
2014-07-30 03:39:00,1996E-3,5C000000,-0724,0832,12149,036.2,045.8,0.464,727.1,01.19,0.508
2014-07-30 03:40:00,2001E-3,5C000000,-0724,0832,12225,036.2,045.8,0.464,727.1,01.19,0.508
2014-07-30 03:41:00,1913E-3,5C000000,-0724,0830,12130,036.2,045.8,0.464,727.0,01.19,0.508
2014-07-30 03:42:00,1877E-3,5C000000,-0724,0832,12245,036.2,045.8,0.464,727.1,01.19,0.508
2014-07-30 03:43:00,2035E-3,5C000000,-0724,0831,12277,036.2,045.8,0.464,727.0,01.19,0.508
2014-07-30 03:44:00,2024E-3,5C000000,-0724,0832,12243,036.2,045.8,0.464,727.0,01.19,0.508
2014-07-30 03:45:00,2012E-3,5C000000,-0724,0830,12305,036.2,045.8,0.464,727.0,01.19,0.508
2014-07-30 03:46:00,1959E-3,5C000000,-0724,0832,12336,036.3,045.8,0.464,727.1,01.19,0.508
2014-07-30 03:47:00,1931E-3,5C000000,-0724,0830,12278,036.3,045.8,0.464,727.1,01.19,0.508
2014-07-30 03:48:00,1876E-3,5C000000,-0724,0831,12194,036.3,045.8,0.464,727.1,01.19,0.508
2014-07-30 03:49:00,1966E-3,5C000000,-0724,0831,12074,036.3,045.8,0.464,727.1,01.19,0.508
2014-07-30 03:50:00,1993E-3,5C000000,-0724,0831,11977,036.3,045.8,0.464,727.1,01.19,0.508
2014-07-30 03:51:00,1939E-3,5C000000,-0724,0831,12355,036.4,045.8,0.464,727.1,01.19,0.508
2014-07-30 03:52:00,1985E-3,5C000000,-0724,0831,12264,036.4,045.8,0.464,727.1,01.19,0.508
2014-07-30 03:53:00,2072E-3,5C000000,-0724,0831,12275,036.4,045.8,0.464,727.1,01.19,0.508
2014-07-30 03:54:00,1882E-3,5C000000,-0724,0831,12032,036.4,045.8,0.464,727.1,01.19,0.508
2014-07-30 03:55:00,1914E-3,5C000000,-0724,0831,12124,036.4,045.8,0.464,727.1,01.19,0.508
2014-07-30 03:56:00,2002E-3,5C000000,-0724,0831,12037,036.4,045.8,0.464,727.1,01.19,0.508
2014-07-30 03:57:00,2101E-3,5C000000,-0724,0831,12268,036.4,045.8,0.464,727.1,01.19,0.508
2014-07-30 03:58:00,2018E-3,5C000000,-0724,0831,12039,036.4,045.8,0.464,727.1,01.19,0.508
2014-07-30 03:59:00,1813E-3,5C000000,-0724,0831,12222,036.4,045.8,0.464,727.1,01.19,0.508
2014-07-30 04:00:00,1986E-3,5C000000,-0724,0831,12204,036.5,045.8,0.464,727.1,01.19,0.508
2014-07-30 04:01:00,2006E-3,5C000000,-0724,0831,12175,036.5,045.8,0.463,727.1,01.19,0.508
2014-07-30 04:02:00,1925E-3,5C000000,-0724,0831,12213,036.5,045.8,0.464,727.1,01.19,0.508
2014-07-30 04:03:00,1943E-3,5C000000,-0724,0831,12339,036.5,045.8,0.464,727.1,01.19,0.508
2014-07-30 04:04:00,1925E-3,5C000000,-0724,0833,12195,036.5,045.8,0.464,727.1,01.19,0.508
2014-07-30 04:05:00,1989E-3,5C000000,-0724,0831,12238,036.5,045.8,0.464,727.1,01.19,0.508
2014-07-30 04:06:00,1942E-3,5C000000,-0724,0831,12180,036.5,045.8,0.463,727.1,01.19,0.508
2014-07-30 04:07:00,1907E-3,5C000000,-0724,0832,12152,036.6,045.8,0.464,727.1,01.19,0.508
2014-07-30 04:08:00,1967E-3,5C000000,-0724,0830,12030,036.6,045.8,0.464,727.1,01.19,0.508
2014-07-30 04:09:00,1834E-3,5C000000,-0724,0831,11933,036.6,045.8,0.463,727.1,01.19,0.508
2014-07-30 04:10:00,1973E-3,5C000000,-0724,0831,12288,036.6,045.8,0.464,727.1,01.19,0.508
2014-07-30 04:11:00,1988E-3,5C000000,-0724,0832,12281,036.6,045.8,0.463,727.1,01.19,0.508
2014-07-30 04:12:00,1912E-3,5C000000,-0724,0832,12170,036.6,045.8,0.464,727.2,01.19,0.508
2014-07-30 04:13:00,2027E-3,5C000000,-0724,0831,12083,036.6,045.8,0.464,727.1,01.19,0.508
2014-07-30 04:14:00,1910E-3,5C000000,-0724,0831,12284,036.6,045.8,0.463,727.2,01.19,0.508
2014-07-30 04:15:00,1869E-3,5C000000,-0724,0832,12110,036.7,045.8,0.464,727.2,01.19,0.508
2014-07-30 04:16:00,1880E-3,5C000000,-0724,0832,12061,036.7,045.8,0.464,727.2,01.19,0.508
2014-07-30 04:17:00,1840E-3,5C000000,-0724,0832,11979,036.7,045.8,0.463,727.2,01.19,0.508
2014-07-30 04:18:00,1885E-3,5C000000,-0724,0832,12303,036.7,045.8,0.463,727.2,01.19,0.508
2014-07-30 04:19:00,1779E-3,5C000000,-0724,0831,12052,036.7,045.8,0.464,727.1,01.19,0.508
2014-07-30 04:20:00,1945E-3,5C000000,-0724,0832,12199,036.7,045.8,0.463,727.1,01.19,0.508